Year,Month,Day,Hour,Minute,Value (Times are PST for temperature in C)
2011,08,12,00,02,13.10
2011,08,12,00,04,13.10
2011,08,12,00,05,13.10
2011,08,12,00,06,13.00
2011,08,12,00,08,12.90
2011,08,12,00,09,12.90
2011,08,12,00,10,12.90
2011,08,12,00,11,12.80
2011,08,12,00,12,12.80
2011,08,12,00,13,12.80
2011,08,12,00,14,12.80
2011,08,12,00,15,12.80
2011,08,12,00,16,12.80
2011,08,12,00,17,12.80
2011,08,12,00,19,12.70
2011,08,12,00,20,12.70
2011,08,12,00,21,12.70
2011,08,12,00,22,12.60
2011,08,12,00,24,12.60
2011,08,12,00,25,12.60
2011,08,12,00,26,12.60
2011,08,12,00,27,12.50
2011,08,12,00,28,12.50
2011,08,12,00,29,12.50
2011,08,12,00,30,12.40
2011,08,12,00,31,12.40
2011,08,12,00,32,12.40
2011,08,12,00,33,12.40
2011,08,12,00,34,12.40
2011,08,12,00,35,12.30
2011,08,12,00,36,12.30
2011,08,12,00,37,12.30
2011,08,12,00,39,12.30
2011,08,12,00,40,12.30
2011,08,12,00,41,12.30
2011,08,12,00,42,12.30
2011,08,12,00,44,12.20
2011,08,12,00,45,12.20
2011,08,12,00,46,12.20
2011,08,12,00,47,12.20
2011,08,12,00,48,12.20
2011,08,12,00,49,12.20
2011,08,12,00,50,12.20
2011,08,12,00,51,12.10
2011,08,12,00,52,12.20
2011,08,12,00,53,12.10
2011,08,12,00,54,12.10
2011,08,12,00,55,12.10
2011,08,12,00,56,12.10
2011,08,12,00,58,12.10
2011,08,12,00,59,12.10
2011,08,12,01,00,12.00
2011,08,12,01,01,12.00
2011,08,12,01,02,12.00
2011,08,12,01,03,12.00
2011,08,12,01,04,12.00
2011,08,12,01,05,12.00
2011,08,12,01,06,11.90
2011,08,12,01,07,11.90
2011,08,12,01,08,11.90
2011,08,12,01,09,11.90
2011,08,12,01,10,11.90
2011,08,12,01,11,11.90
2011,08,12,01,12,11.90
2011,08,12,01,13,11.90
2011,08,12,01,14,11.90
2011,08,12,01,16,11.90
2011,08,12,01,17,11.90
2011,08,12,01,18,11.90
2011,08,12,01,19,11.80
2011,08,12,01,21,11.80
2011,08,12,01,22,11.80
2011,08,12,01,23,11.80
2011,08,12,01,24,11.80
2011,08,12,01,25,11.80
2011,08,12,01,26,11.80
2011,08,12,01,27,11.80
2011,08,12,01,28,11.80
2011,08,12,01,29,11.80
2011,08,12,01,30,11.80
2011,08,12,01,31,11.80
2011,08,12,01,33,11.80
2011,08,12,01,34,11.80
2011,08,12,01,35,11.80
2011,08,12,01,36,11.80
2011,08,12,01,37,11.80
2011,08,12,01,38,11.80
2011,08,12,01,39,11.80
2011,08,12,01,40,11.80
2011,08,12,01,41,11.80
2011,08,12,01,43,11.80
2011,08,12,01,44,11.80
2011,08,12,01,45,11.80
2011,08,12,01,46,11.80
2011,08,12,01,48,11.80
2011,08,12,01,49,11.80
2011,08,12,01,50,11.80
2011,08,12,01,51,11.90
2011,08,12,01,53,11.90
2011,08,12,01,54,11.90
2011,08,12,01,55,11.90
2011,08,12,01,56,11.80
2011,08,12,01,58,11.80
2011,08,12,01,59,11.80
2011,08,12,02,00,11.80
2011,08,12,02,01,11.80
2011,08,12,02,02,11.80
2011,08,12,02,03,11.80
2011,08,12,02,04,11.80
2011,08,12,02,06,11.80
2011,08,12,02,07,11.80
2011,08,12,02,08,11.80
2011,08,12,02,09,11.80
2011,08,12,02,11,11.80
2011,08,12,02,12,11.80
2011,08,12,02,13,11.80
2011,08,12,02,14,11.80
2011,08,12,02,15,11.80
2011,08,12,02,16,11.80
2011,08,12,02,17,11.80
2011,08,12,02,18,11.80
2011,08,12,02,19,11.80
2011,08,12,02,20,11.80
2011,08,12,02,22,11.80
2011,08,12,02,23,11.80
2011,08,12,02,24,11.70
2011,08,12,02,25,11.70
2011,08,12,02,26,11.70
2011,08,12,02,27,11.70
2011,08,12,02,28,11.70
2011,08,12,02,29,11.70
2011,08,12,02,30,11.70
2011,08,12,02,32,11.70
2011,08,12,02,33,11.70
2011,08,12,02,34,11.70
2011,08,12,02,35,11.70
2011,08,12,02,36,11.70
2011,08,12,02,37,11.70
2011,08,12,02,38,11.70
2011,08,12,02,39,11.70
2011,08,12,02,40,11.70
2011,08,12,02,42,11.70
2011,08,12,02,43,11.70
2011,08,12,02,44,11.70
2011,08,12,02,45,11.70
2011,08,12,02,46,11.70
2011,08,12,02,47,11.70
2011,08,12,02,48,11.70
2011,08,12,02,49,11.70
2011,08,12,02,51,11.70
2011,08,12,02,52,11.70
2011,08,12,02,53,11.70
2011,08,12,02,54,11.70
2011,08,12,02,55,11.70
2011,08,12,02,56,11.70
2011,08,12,02,57,11.70
2011,08,12,02,58,11.70
2011,08,12,03,00,11.70
2011,08,12,03,01,11.70
2011,08,12,03,02,11.70
2011,08,12,03,04,11.70
2011,08,12,03,05,11.70
2011,08,12,03,06,11.70
2011,08,12,03,07,11.70
2011,08,12,03,09,11.70
2011,08,12,03,10,11.60
2011,08,12,03,11,11.60
2011,08,12,03,12,11.60
2011,08,12,03,14,11.60
2011,08,12,03,15,11.60
2011,08,12,03,16,11.60
2011,08,12,03,17,11.60
2011,08,12,03,18,11.60
2011,08,12,03,20,11.50
2011,08,12,03,21,11.50
2011,08,12,03,22,11.50
2011,08,12,03,23,11.40
2011,08,12,03,24,11.40
2011,08,12,03,26,11.40
2011,08,12,03,27,11.40
2011,08,12,03,28,11.40
2011,08,12,03,29,11.40
2011,08,12,03,31,11.40
2011,08,12,03,32,11.40
2011,08,12,03,33,11.40
2011,08,12,03,34,11.30
2011,08,12,03,35,11.30
2011,08,12,03,37,11.30
2011,08,12,03,38,11.30
2011,08,12,03,39,11.30
2011,08,12,03,40,11.30
2011,08,12,03,41,11.30
2011,08,12,03,43,11.30
2011,08,12,03,44,11.30
2011,08,12,03,45,11.20
2011,08,12,03,46,11.20
2011,08,12,03,47,11.20
2011,08,12,03,48,11.20
2011,08,12,03,49,11.20
2011,08,12,03,50,11.20
2011,08,12,03,51,11.20
2011,08,12,03,53,11.20
2011,08,12,03,54,11.20
2011,08,12,03,55,11.20
2011,08,12,03,56,11.10
2011,08,12,03,58,11.10
2011,08,12,03,59,11.10
2011,08,12,04,00,11.10
2011,08,12,04,01,11.10
2011,08,12,04,03,11.00
2011,08,12,04,04,11.00
2011,08,12,04,05,11.00
2011,08,12,04,06,11.00
2011,08,12,04,08,11.00
2011,08,12,04,09,11.00
2011,08,12,04,10,10.90
2011,08,12,04,11,10.90
2011,08,12,04,13,10.90
2011,08,12,04,14,10.90
2011,08,12,04,15,10.90
2011,08,12,04,16,10.90
2011,08,12,04,18,10.90
2011,08,12,04,19,10.90
2011,08,12,04,20,10.90
2011,08,12,04,21,10.90
2011,08,12,04,22,10.90
2011,08,12,04,23,10.90
2011,08,12,04,24,10.90
2011,08,12,04,25,10.90
2011,08,12,04,26,10.90
2011,08,12,04,27,10.90
2011,08,12,04,29,10.90
2011,08,12,04,30,10.90
2011,08,12,04,31,10.90
2011,08,12,04,33,10.90
2011,08,12,04,34,11.00
2011,08,12,04,35,11.00
2011,08,12,04,36,10.90
2011,08,12,04,38,11.00
2011,08,12,04,39,10.90
2011,08,12,04,40,10.90
2011,08,12,04,41,10.90
2011,08,12,04,42,10.90
2011,08,12,04,44,10.90
2011,08,12,04,45,10.90
2011,08,12,04,46,11.00
2011,08,12,04,47,11.00
2011,08,12,04,49,11.00
2011,08,12,04,50,11.10
2011,08,12,04,51,11.10
2011,08,12,04,52,11.10
2011,08,12,04,54,11.10
2011,08,12,04,55,11.10
2011,08,12,04,56,11.10
2011,08,12,04,58,11.10
2011,08,12,04,59,11.10
2011,08,12,05,00,11.10
2011,08,12,05,01,11.10
2011,08,12,05,03,11.10
2011,08,12,05,04,11.10
2011,08,12,05,05,11.10
2011,08,12,05,06,11.10
2011,08,12,05,08,11.10
2011,08,12,05,09,11.10
2011,08,12,05,10,11.10
2011,08,12,05,12,11.10
2011,08,12,05,13,11.10
2011,08,12,05,14,11.10
2011,08,12,05,15,11.10
2011,08,12,05,17,11.10
2011,08,12,05,18,11.10
2011,08,12,05,19,11.20
2011,08,12,05,20,11.20
2011,08,12,05,22,11.20
2011,08,12,05,23,11.20
2011,08,12,05,24,11.20
2011,08,12,05,25,11.20
2011,08,12,05,27,11.20
2011,08,12,05,28,11.10
2011,08,12,05,29,11.10
2011,08,12,05,30,11.10
2011,08,12,05,32,11.00
2011,08,12,05,33,10.90
2011,08,12,05,34,10.90
2011,08,12,05,35,10.90
2011,08,12,05,37,10.80
2011,08,12,05,38,10.80
2011,08,12,05,39,10.80
2011,08,12,05,41,10.70
2011,08,12,05,42,10.70
2011,08,12,05,43,10.60
2011,08,12,05,44,10.60
2011,08,12,05,46,10.60
2011,08,12,05,47,10.60
2011,08,12,05,48,10.60
2011,08,12,05,49,10.60
2011,08,12,05,51,10.60
2011,08,12,05,52,10.60
2011,08,12,05,53,10.60
2011,08,12,05,54,10.60
2011,08,12,05,55,10.50
2011,08,12,05,56,10.50
2011,08,12,05,57,10.50
2011,08,12,05,58,10.60
2011,08,12,05,59,10.60
2011,08,12,06,00,10.60
2011,08,12,06,01,10.60
2011,08,12,06,02,10.60
2011,08,12,06,03,10.70
2011,08,12,06,04,10.70
2011,08,12,06,06,10.60
2011,08,12,06,07,10.70
2011,08,12,06,08,10.70
2011,08,12,06,09,10.70
2011,08,12,06,10,10.70
2011,08,12,06,12,10.80
2011,08,12,06,13,10.80
2011,08,12,06,14,10.70
2011,08,12,06,15,10.70
2011,08,12,06,17,10.70
2011,08,12,06,18,10.60
2011,08,12,06,19,10.60
2011,08,12,06,20,10.50
2011,08,12,06,22,10.50
2011,08,12,06,23,10.40
2011,08,12,06,24,10.40
2011,08,12,06,25,10.40
2011,08,12,06,26,10.40
2011,08,12,06,27,10.50
2011,08,12,06,28,10.50
2011,08,12,06,29,10.50
2011,08,12,06,30,10.50
2011,08,12,06,31,10.50
2011,08,12,06,33,10.50
2011,08,12,06,34,10.50
2011,08,12,06,35,10.50
2011,08,12,06,36,10.50
2011,08,12,06,37,10.50
2011,08,12,06,38,10.40
2011,08,12,06,39,10.40
2011,08,12,06,40,10.40
2011,08,12,06,41,10.40
2011,08,12,06,42,10.40
2011,08,12,06,43,10.40
2011,08,12,06,44,10.40
2011,08,12,06,45,10.40
2011,08,12,06,46,10.40
2011,08,12,06,48,10.40
2011,08,12,06,49,10.40
2011,08,12,06,50,10.40
2011,08,12,06,51,10.30
2011,08,12,06,53,10.30
2011,08,12,06,54,10.30
2011,08,12,06,55,10.30
2011,08,12,06,56,10.30
2011,08,12,06,58,10.30
2011,08,12,06,59,10.30
2011,08,12,07,00,10.40
2011,08,12,07,01,10.40
2011,08,12,07,02,10.40
2011,08,12,07,04,10.40
2011,08,12,07,05,10.50
2011,08,12,07,06,10.50
2011,08,12,07,07,10.50
2011,08,12,07,08,10.50
2011,08,12,07,09,10.50
2011,08,12,07,10,10.60
2011,08,12,07,11,10.60
2011,08,12,07,13,10.60
2011,08,12,07,14,10.60
2011,08,12,07,15,10.70
2011,08,12,07,16,10.70
2011,08,12,07,18,10.70
2011,08,12,07,19,10.80
2011,08,12,07,20,10.80
2011,08,12,07,22,10.90
2011,08,12,07,23,11.00
2011,08,12,07,24,11.10
2011,08,12,07,25,11.20
2011,08,12,07,27,11.30
2011,08,12,07,28,11.40
2011,08,12,07,29,11.40
2011,08,12,07,30,11.50
2011,08,12,07,31,11.60
2011,08,12,07,33,11.60
2011,08,12,07,34,11.70
2011,08,12,07,35,11.70
2011,08,12,07,37,11.80
2011,08,12,07,38,11.80
2011,08,12,07,39,11.90
2011,08,12,07,40,11.90
2011,08,12,07,42,12.00
2011,08,12,07,43,12.10
2011,08,12,07,44,12.10
2011,08,12,07,45,12.20
2011,08,12,07,47,12.20
2011,08,12,07,48,12.30
2011,08,12,07,49,12.40
2011,08,12,07,51,12.40
2011,08,12,07,52,12.60
2011,08,12,07,53,12.70
2011,08,12,07,54,12.70
2011,08,12,07,56,12.80
2011,08,12,07,57,12.90
2011,08,12,07,58,13.00
2011,08,12,07,59,13.10
2011,08,12,08,00,13.10
2011,08,12,08,02,13.20
2011,08,12,08,03,13.30
2011,08,12,08,04,13.30
2011,08,12,08,05,13.40
2011,08,12,08,06,13.50
2011,08,12,08,07,13.50
2011,08,12,08,08,13.60
2011,08,12,08,09,13.60
2011,08,12,08,10,13.60
2011,08,12,08,11,13.70
2011,08,12,08,13,13.70
2011,08,12,08,14,13.80
2011,08,12,08,15,13.90
2011,08,12,08,16,13.90
2011,08,12,08,17,14.00
2011,08,12,08,18,14.00
2011,08,12,08,19,14.10
2011,08,12,08,20,14.20
2011,08,12,08,21,14.20
2011,08,12,08,22,14.30
2011,08,12,08,24,14.30
2011,08,12,08,25,14.50
2011,08,12,08,26,14.60
2011,08,12,08,27,14.60
2011,08,12,08,28,14.70
2011,08,12,08,29,14.70
2011,08,12,08,30,14.80
2011,08,12,08,31,14.80
2011,08,12,08,32,14.90
2011,08,12,08,34,15.00
2011,08,12,08,35,15.10
2011,08,12,08,36,15.10
2011,08,12,08,37,15.10
2011,08,12,08,39,15.10
2011,08,12,08,40,15.20
2011,08,12,08,41,15.20
2011,08,12,08,42,15.30
2011,08,12,08,43,15.30
2011,08,12,08,45,15.40
2011,08,12,08,46,15.50
2011,08,12,08,47,15.50
2011,08,12,08,49,15.60
2011,08,12,08,50,15.60
2011,08,12,08,51,15.60
2011,08,12,08,52,15.60
2011,08,12,08,53,15.60
2011,08,12,08,54,15.60
2011,08,12,08,55,15.60
2011,08,12,08,57,15.60
2011,08,12,08,58,15.60
2011,08,12,08,59,15.60
2011,08,12,09,00,15.60
2011,08,12,09,01,15.60
2011,08,12,09,03,15.70
2011,08,12,09,04,15.70
2011,08,12,09,05,15.70
2011,08,12,09,06,15.80
2011,08,12,09,08,15.80
2011,08,12,09,09,15.90
2011,08,12,09,10,15.90
2011,08,12,09,11,15.90
2011,08,12,09,13,16.00
2011,08,12,09,14,16.00
2011,08,12,09,15,16.00
2011,08,12,09,16,16.00
2011,08,12,09,17,16.10
2011,08,12,09,18,16.10
2011,08,12,09,19,16.10
2011,08,12,09,20,16.20
2011,08,12,09,21,16.20
2011,08,12,09,23,16.20
2011,08,12,09,24,16.20
2011,08,12,09,25,16.20
2011,08,12,09,26,16.20
2011,08,12,09,28,16.30
2011,08,12,09,29,16.30
2011,08,12,09,30,16.30
2011,08,12,09,31,16.30
2011,08,12,09,33,16.40
2011,08,12,09,34,16.40
2011,08,12,09,35,16.40
2011,08,12,09,36,16.50
2011,08,12,09,38,16.50
2011,08,12,09,39,16.60
2011,08,12,09,40,16.70
2011,08,12,09,41,16.70
2011,08,12,09,43,16.80
2011,08,12,09,44,16.90
2011,08,12,09,45,16.90
2011,08,12,09,46,17.00
2011,08,12,09,47,17.10
2011,08,12,09,49,17.10
2011,08,12,09,50,17.10
2011,08,12,09,51,17.10
2011,08,12,09,52,17.20
2011,08,12,09,54,17.20
2011,08,12,09,55,17.30
2011,08,12,09,56,17.30
2011,08,12,09,57,17.40
2011,08,12,09,59,17.40
2011,08,12,10,00,17.40
2011,08,12,10,01,17.40
2011,08,12,10,02,17.30
2011,08,12,10,04,17.30
2011,08,12,10,05,17.30
2011,08,12,10,06,17.30
2011,08,12,10,07,17.30
2011,08,12,10,08,17.30
2011,08,12,10,09,17.30
2011,08,12,10,10,17.30
2011,08,12,10,11,17.30
2011,08,12,10,12,17.30
2011,08,12,10,13,17.30
2011,08,12,10,14,17.30
2011,08,12,10,15,17.30
2011,08,12,10,16,17.30
2011,08,12,10,18,17.30
2011,08,12,10,19,17.30
2011,08,12,10,20,17.30
2011,08,12,10,21,17.30
2011,08,12,10,23,17.30
2011,08,12,10,24,17.30
2011,08,12,10,25,17.40
2011,08,12,10,26,17.40
2011,08,12,10,28,17.40
2011,08,12,10,29,17.30
2011,08,12,10,30,17.40
2011,08,12,10,31,17.50
2011,08,12,10,33,17.50
2011,08,12,10,34,17.40
2011,08,12,10,35,17.30
2011,08,12,10,36,17.30
2011,08,12,10,38,17.30
2011,08,12,10,39,17.30
2011,08,12,10,40,17.30
2011,08,12,10,41,17.30
2011,08,12,10,43,17.40
2011,08,12,10,44,17.60
2011,08,12,10,45,17.70
2011,08,12,10,46,17.70
2011,08,12,10,48,17.80
2011,08,12,10,49,17.90
2011,08,12,10,50,18.00
2011,08,12,10,51,18.10
2011,08,12,10,53,18.20
2011,08,12,10,54,18.30
2011,08,12,10,55,18.30
2011,08,12,10,56,18.30
2011,08,12,10,58,18.30
2011,08,12,10,59,18.30
2011,08,12,11,00,18.30
2011,08,12,11,01,18.30
2011,08,12,11,02,18.40
2011,08,12,11,04,18.50
2011,08,12,11,05,18.60
2011,08,12,11,06,18.70
2011,08,12,11,07,18.70
2011,08,12,11,08,18.70
2011,08,12,11,09,18.80
2011,08,12,11,10,18.90
2011,08,12,11,11,18.90
2011,08,12,11,13,18.80
2011,08,12,11,14,18.70
2011,08,12,11,15,18.70
2011,08,12,11,16,18.70
2011,08,12,11,18,18.60
2011,08,12,11,19,18.60
2011,08,12,11,20,18.50
2011,08,12,11,22,18.40
2011,08,12,11,23,18.40
2011,08,12,11,24,18.30
2011,08,12,11,25,18.40
2011,08,12,11,26,18.60
2011,08,12,11,28,18.60
2011,08,12,11,29,18.60
2011,08,12,11,30,18.70
2011,08,12,11,31,18.80
2011,08,12,11,33,18.80
2011,08,12,11,34,18.80
2011,08,12,11,35,18.90
2011,08,12,11,36,18.80
2011,08,12,11,38,18.80
2011,08,12,11,39,18.90
2011,08,12,11,40,19.00
2011,08,12,11,41,19.10
2011,08,12,11,42,19.20
2011,08,12,11,44,19.30
2011,08,12,11,45,19.40
2011,08,12,11,46,19.40
2011,08,12,11,47,19.50
2011,08,12,11,48,19.50
2011,08,12,11,50,19.40
2011,08,12,11,51,19.40
2011,08,12,11,52,19.50
2011,08,12,11,53,19.50
2011,08,12,11,54,19.40
2011,08,12,11,56,19.40
2011,08,12,11,57,19.30
2011,08,12,11,58,19.30
2011,08,12,11,59,19.30
2011,08,12,12,00,19.30
2011,08,12,12,02,19.20
2011,08,12,12,03,19.10
2011,08,12,12,04,19.10
2011,08,12,12,05,19.10
2011,08,12,12,07,19.10
2011,08,12,12,08,19.10
2011,08,12,12,09,19.10
2011,08,12,12,11,19.10
2011,08,12,12,12,19.10
2011,08,12,12,13,19.10
2011,08,12,12,15,19.10
2011,08,12,12,16,19.10
2011,08,12,12,17,19.10
2011,08,12,12,18,19.20
2011,08,12,12,20,19.20
2011,08,12,12,21,19.20
2011,08,12,12,22,19.20
2011,08,12,12,23,19.20
2011,08,12,12,24,19.20
2011,08,12,12,25,19.20
2011,08,12,12,26,19.30
2011,08,12,12,27,19.20
2011,08,12,12,29,19.20
2011,08,12,12,30,19.10
2011,08,12,12,31,18.90
2011,08,12,12,32,18.80
2011,08,12,12,33,18.80
2011,08,12,12,34,18.80
2011,08,12,12,35,18.80
2011,08,12,12,36,18.80
2011,08,12,12,37,18.80
2011,08,12,12,38,18.90
2011,08,12,12,39,18.90
2011,08,12,12,40,19.00
2011,08,12,12,41,19.10
2011,08,12,12,42,19.10
2011,08,12,12,43,19.10
2011,08,12,12,44,19.20
2011,08,12,12,45,19.20
2011,08,12,12,46,19.30
2011,08,12,12,47,19.30
2011,08,12,12,48,19.40
2011,08,12,12,49,19.40
2011,08,12,12,50,19.50
2011,08,12,12,51,19.60
2011,08,12,12,52,19.60
2011,08,12,12,53,19.60
2011,08,12,12,54,19.70
2011,08,12,12,55,19.70
2011,08,12,12,56,19.60
2011,08,12,12,57,19.60
2011,08,12,12,58,19.60
2011,08,12,12,59,19.60
2011,08,12,13,00,19.60
2011,08,12,13,01,19.60
2011,08,12,13,02,19.60
2011,08,12,13,03,19.60
2011,08,12,13,04,19.50
2011,08,12,13,05,19.40
2011,08,12,13,06,19.40
2011,08,12,13,07,19.40
2011,08,12,13,08,19.30
2011,08,12,13,09,19.30
2011,08,12,13,10,19.20
2011,08,12,13,11,19.20
2011,08,12,13,12,19.20
2011,08,12,13,13,19.20
2011,08,12,13,14,19.30
2011,08,12,13,15,19.30
2011,08,12,13,16,19.30
2011,08,12,13,17,19.30
2011,08,12,13,18,19.30
2011,08,12,13,19,19.30
2011,08,12,13,20,19.20
2011,08,12,13,21,19.20
2011,08,12,13,22,19.20
2011,08,12,13,23,19.20
2011,08,12,13,24,19.20
2011,08,12,13,25,19.30
2011,08,12,13,26,19.30
2011,08,12,13,27,19.40
2011,08,12,13,28,19.50
2011,08,12,13,29,19.60
2011,08,12,13,30,19.70
2011,08,12,13,31,19.60
2011,08,12,13,32,19.60
2011,08,12,13,34,19.40
2011,08,12,13,35,19.40
2011,08,12,13,36,19.30
2011,08,12,13,37,19.30
2011,08,12,13,38,19.30
2011,08,12,13,40,19.40
2011,08,12,13,41,19.40
2011,08,12,13,42,19.60
2011,08,12,13,43,19.70
2011,08,12,13,45,19.70
2011,08,12,13,46,19.80
2011,08,12,13,47,19.90
2011,08,12,13,48,19.90
2011,08,12,13,49,19.90
2011,08,12,13,50,19.80
2011,08,12,13,51,19.70
2011,08,12,13,52,19.70
2011,08,12,13,53,19.70
2011,08,12,13,55,19.80
2011,08,12,13,56,19.90
2011,08,12,13,57,20.00
2011,08,12,13,59,20.00
2011,08,12,14,00,20.10
2011,08,12,14,01,20.10
2011,08,12,14,02,20.10
2011,08,12,14,04,19.90
2011,08,12,14,05,19.90
2011,08,12,14,06,19.90
2011,08,12,14,08,19.90
2011,08,12,14,09,20.10
2011,08,12,14,10,20.20
2011,08,12,14,11,20.20
2011,08,12,14,13,20.30
2011,08,12,14,14,20.20
2011,08,12,14,15,20.20
2011,08,12,14,16,20.30
2011,08,12,14,18,20.30
2011,08,12,14,19,20.30
2011,08,12,14,20,20.30
2011,08,12,14,22,20.30
2011,08,12,14,23,20.30
2011,08,12,14,24,20.30
2011,08,12,14,26,20.40
2011,08,12,14,27,20.40
2011,08,12,14,28,20.40
2011,08,12,14,29,20.50
2011,08,12,14,30,20.50
2011,08,12,14,31,20.50
2011,08,12,14,33,20.60
2011,08,12,14,34,20.60
2011,08,12,14,35,20.60
2011,08,12,14,36,20.60
2011,08,12,14,38,20.60
2011,08,12,14,39,20.60
2011,08,12,14,40,20.50
2011,08,12,14,41,20.50
2011,08,12,14,42,20.60
2011,08,12,14,44,20.60
2011,08,12,14,45,20.50
2011,08,12,14,46,20.50
2011,08,12,14,47,20.50
2011,08,12,14,48,20.50
2011,08,12,14,49,20.60
2011,08,12,14,50,20.60
2011,08,12,14,51,20.70
2011,08,12,14,52,20.70
2011,08,12,14,54,20.70
2011,08,12,14,55,20.80
2011,08,12,14,56,20.80
2011,08,12,14,57,20.80
2011,08,12,14,59,20.90
2011,08,12,15,00,21.00
2011,08,12,15,01,21.10
2011,08,12,15,03,21.10
2011,08,12,15,04,21.30
2011,08,12,15,05,21.30
2011,08,12,15,06,21.30
2011,08,12,15,08,21.20
2011,08,12,15,09,21.10
2011,08,12,15,10,21.00
2011,08,12,15,11,20.90
2011,08,12,15,12,20.80
2011,08,12,15,13,20.80
2011,08,12,15,14,20.80
2011,08,12,15,15,20.80
2011,08,12,15,16,20.80
2011,08,12,15,17,20.80
2011,08,12,15,18,20.70
2011,08,12,15,19,20.70
2011,08,12,15,20,20.70
2011,08,12,15,21,20.70
2011,08,12,15,23,20.70
2011,08,12,15,24,20.70
2011,08,12,15,25,20.70
2011,08,12,15,26,20.70
2011,08,12,15,28,20.70
2011,08,12,15,29,20.70
2011,08,12,15,30,20.80
2011,08,12,15,31,20.80
2011,08,12,15,32,20.90
2011,08,12,15,34,20.90
2011,08,12,15,35,20.90
2011,08,12,15,36,20.90
2011,08,12,15,37,21.00
2011,08,12,15,38,21.10
2011,08,12,15,39,21.10
2011,08,12,15,40,21.10
2011,08,12,15,41,21.10
2011,08,12,15,42,21.20
2011,08,12,15,44,21.20
2011,08,12,15,45,21.20
2011,08,12,15,46,21.30
2011,08,12,15,47,21.40
2011,08,12,15,48,21.40
2011,08,12,15,49,21.40
2011,08,12,15,50,21.60
2011,08,12,15,51,21.60
2011,08,12,15,53,21.70
2011,08,12,15,54,21.70
2011,08,12,15,55,21.70
2011,08,12,15,57,21.60
2011,08,12,15,58,21.50
2011,08,12,15,59,21.50
2011,08,12,16,00,21.40
2011,08,12,16,02,21.40
2011,08,12,16,03,21.50
2011,08,12,16,04,21.50
2011,08,12,16,06,21.40
2011,08,12,16,07,21.50
2011,08,12,16,08,21.50
2011,08,12,16,10,21.60
2011,08,12,16,11,21.60
2011,08,12,16,12,21.60
2011,08,12,16,14,21.60
2011,08,12,16,15,21.60
2011,08,12,16,16,21.60
2011,08,12,16,17,21.60
2011,08,12,16,18,21.60
2011,08,12,16,20,21.60
2011,08,12,16,21,21.60
2011,08,12,16,22,21.60
2011,08,12,16,24,21.50
2011,08,12,16,25,21.40
2011,08,12,16,26,21.20
2011,08,12,16,27,21.10
2011,08,12,16,28,21.10
2011,08,12,16,30,21.10
2011,08,12,16,31,21.10
2011,08,12,16,32,21.00
2011,08,12,16,34,20.90
2011,08,12,16,35,20.90
2011,08,12,16,36,20.80
2011,08,12,16,37,20.70
2011,08,12,16,39,20.70
2011,08,12,16,40,20.70
2011,08,12,16,41,20.70
2011,08,12,16,43,20.70
2011,08,12,16,44,20.70
2011,08,12,16,45,20.80
2011,08,12,16,46,20.80
2011,08,12,16,47,20.80
2011,08,12,16,49,20.80
2011,08,12,16,50,20.80
2011,08,12,16,51,20.80
2011,08,12,16,53,20.90
2011,08,12,16,54,20.80
2011,08,12,16,55,20.80
2011,08,12,16,57,20.70
2011,08,12,16,58,20.70
2011,08,12,16,59,20.60
2011,08,12,17,00,20.40
2011,08,12,17,02,20.40
2011,08,12,17,03,20.30
2011,08,12,17,04,20.30
2011,08,12,17,05,20.30
2011,08,12,17,07,20.20
2011,08,12,17,08,20.20
2011,08,12,17,09,20.20
2011,08,12,17,10,20.20
2011,08,12,17,12,20.20
2011,08,12,17,13,20.20
2011,08,12,17,14,20.30
2011,08,12,17,16,20.40
2011,08,12,17,17,20.50
2011,08,12,17,18,20.60
2011,08,12,17,19,20.70
2011,08,12,17,21,20.70
2011,08,12,17,22,20.80
2011,08,12,17,23,20.80
2011,08,12,17,25,20.90
2011,08,12,17,26,21.10
2011,08,12,17,27,21.10
2011,08,12,17,28,21.10
2011,08,12,17,29,21.10
2011,08,12,17,30,21.10
2011,08,12,17,31,21.10
2011,08,12,17,32,21.00
2011,08,12,17,34,20.90
2011,08,12,17,35,20.90
2011,08,12,17,36,20.90
2011,08,12,17,37,20.90
2011,08,12,17,39,20.80
2011,08,12,17,40,20.80
2011,08,12,17,41,20.80
2011,08,12,17,42,20.70
2011,08,12,17,44,20.70
2011,08,12,17,45,20.70
2011,08,12,17,46,20.70
2011,08,12,17,48,20.70
2011,08,12,17,49,20.70
2011,08,12,17,50,20.70
2011,08,12,17,51,20.70
2011,08,12,17,53,20.80
2011,08,12,17,54,20.80
2011,08,12,17,55,20.80
2011,08,12,17,57,20.80
2011,08,12,17,58,20.80
2011,08,12,17,59,20.80
2011,08,12,18,00,20.70
2011,08,12,18,02,20.70
2011,08,12,18,03,20.60
2011,08,12,18,04,20.60
2011,08,12,18,05,20.60
2011,08,12,18,07,20.50
2011,08,12,18,08,20.40
2011,08,12,18,09,20.40
2011,08,12,18,10,20.40
2011,08,12,18,12,20.40
2011,08,12,18,13,20.30
2011,08,12,18,14,20.30
2011,08,12,18,15,20.30
2011,08,12,18,16,20.30
2011,08,12,18,17,20.20
2011,08,12,18,18,20.20
2011,08,12,18,19,20.10
2011,08,12,18,20,20.10
2011,08,12,18,22,20.10
2011,08,12,18,23,20.00
2011,08,12,18,24,20.00
2011,08,12,18,25,20.00
2011,08,12,18,26,20.10
2011,08,12,18,28,20.10
2011,08,12,18,29,20.30
2011,08,12,18,30,20.30
2011,08,12,18,31,20.40
2011,08,12,18,32,20.40
2011,08,12,18,33,20.40
2011,08,12,18,35,20.50
2011,08,12,18,36,20.60
2011,08,12,18,37,20.60
2011,08,12,18,39,20.60
2011,08,12,18,40,20.50
2011,08,12,18,41,20.40
2011,08,12,18,42,20.40
2011,08,12,18,43,20.50
2011,08,12,18,45,20.50
2011,08,12,18,46,20.60
2011,08,12,18,47,20.60
2011,08,12,18,48,20.60
2011,08,12,18,50,20.70
2011,08,12,18,51,20.70
2011,08,12,18,52,20.80
2011,08,12,18,54,20.80
2011,08,12,18,55,20.90
2011,08,12,18,56,20.90
2011,08,12,18,58,20.90
2011,08,12,18,59,20.90
2011,08,12,19,00,20.80
2011,08,12,19,01,20.80
2011,08,12,19,02,20.80
2011,08,12,19,04,20.80
2011,08,12,19,05,20.80
2011,08,12,19,06,20.70
2011,08,12,19,07,20.70
2011,08,12,19,09,20.70
2011,08,12,19,10,20.70
2011,08,12,19,11,20.70
2011,08,12,19,12,20.70
2011,08,12,19,13,20.60
2011,08,12,19,15,20.60
2011,08,12,19,16,20.60
2011,08,12,19,17,20.60
2011,08,12,19,18,20.60
2011,08,12,19,20,20.60
2011,08,12,19,21,20.60
2011,08,12,19,22,20.60
2011,08,12,19,23,20.60
2011,08,12,19,24,20.50
2011,08,12,19,26,20.40
2011,08,12,19,27,20.40
2011,08,12,19,28,20.30
2011,08,12,19,30,20.30
2011,08,12,19,31,20.30
2011,08,12,19,32,20.30
2011,08,12,19,33,20.30
2011,08,12,19,34,20.30
2011,08,12,19,35,20.30
2011,08,12,19,36,20.30
2011,08,12,19,37,20.30
2011,08,12,19,38,20.30
2011,08,12,19,39,20.30
2011,08,12,19,41,20.20
2011,08,12,19,42,20.20
2011,08,12,19,43,20.20
2011,08,12,19,44,20.10
2011,08,12,19,45,20.10
2011,08,12,19,46,20.10
2011,08,12,19,47,20.10
2011,08,12,19,48,20.10
2011,08,12,19,49,20.00
2011,08,12,19,50,19.90
2011,08,12,19,51,19.90
2011,08,12,19,52,19.90
2011,08,12,19,53,19.90
2011,08,12,19,54,19.90
2011,08,12,19,55,19.80
2011,08,12,19,56,19.80
2011,08,12,19,57,19.80
2011,08,12,19,58,19.80
2011,08,12,19,59,19.70
2011,08,12,20,00,19.70
2011,08,12,20,01,19.70
2011,08,12,20,02,19.60
2011,08,12,20,03,19.60
2011,08,12,20,04,19.60
2011,08,12,20,05,19.50
2011,08,12,20,06,19.50
2011,08,12,20,07,19.40
2011,08,12,20,08,19.40
2011,08,12,20,09,19.40
2011,08,12,20,10,19.40
2011,08,12,20,11,19.30
2011,08,12,20,12,19.30
2011,08,12,20,13,19.30
2011,08,12,20,14,19.30
2011,08,12,20,15,19.20
2011,08,12,20,16,19.20
2011,08,12,20,17,19.20
2011,08,12,20,18,19.20
2011,08,12,20,19,19.10
2011,08,12,20,20,19.10
2011,08,12,20,21,19.10
2011,08,12,20,22,19.10
2011,08,12,20,23,19.00
2011,08,12,20,24,18.90
2011,08,12,20,25,18.90